Regional Weather Roundup
Issued by NWS

Home | Current Version | Previous Version | Graphics & Text | Print | Product List | Glossary On
Versions: 1 2 3 4 5 6 7 8 9 10 11 12 13 14 15 16 17 18 19 20 21 22 23 24 25 26 27 28 29 30 31 32 33 34 35 36 37 38 39 40 41 42 43 44 45 46 47 48 49 50
000
ASUS45 KBOI 111710
RWRID

IDAHO REGIONAL WEATHER ROUNDUP
NATIONAL WEATHER SERVICE BOISE ID
1000 AM MST THU FEB 11 2016

NOTE: "FAIR" INDICATES FEW OR NO CLOUDS BELOW 12000 FEET
WITH NO SIGNIFICANT WEATHER AND/OR OBSTRUCTIONS TO VISIBILITY

IDZ012-014-111800-
SOUTHWEST IDAHO


CITY           SKY/WX    TMP DP  RH WIND       PRES   REMARKS
BOISE          MOSUNNY   36  30  79 S5        30.40S WCI  32
CALDWELL       MOSUNNY   37  33  85 MISG      30.43R FOG
$$

IDZ016-017-111800-
SOUTHCENTRAL IDAHO


CITY           SKY/WX    TMP DP  RH WIND       PRES   REMARKS
BURLEY         SUNNY     35  29  78 N7        30.37R WCI  29
JEROME         MOSUNNY   24  18  77 NE20      30.38R WCI  10
TWIN FALLS     SUNNY     33  29  85 E5        30.38R WCI  29
$$

IDZ019>023-111800-
SOUTHEAST IDAHO


CITY           SKY/WX    TMP DP  RH WIND       PRES   REMARKS
IDAHO FALLS    CLOUDY    14  11  87 N9        30.43S WCI   2
POCATELLO      CLOUDY    26  21  81 E10       30.43R WCI  16
REXBURG        CLOUDY    22  16  78 CALM      30.42S
$$

IDZ006-010-011-018-031-032-111800-
CENTRAL IDAHO MOUNTAINS


CITY           SKY/WX    TMP DP  RH WIND       PRES   REMARKS
MCCALL         CLOUDY    31  27  85 CALM      30.33R
HAILEY         PTSUNNY   28  21  74 NW6       30.38F WCI  22
STANLEY          N/A     21  13  71 E5        30.40R WCI  15
SALMON         CLOUDY    16  16 100 CALM      30.45R
CHALLIS        CLOUDY    19  15  84 NW5       30.40R WCI  12
$$

IDZ002-004-006-007-026-111800-
NORTHERN IDAHO


CITY           SKY/WX    TMP DP  RH WIND       PRES   REMARKS
LEWISTON       CLOUDY    46  36  68 E9        30.32R
LOWELL           N/A     38  35  89 CALM      30.40S
COEUR D`ALENE  CLOUDY    34  32  93 NE13      30.32R VSB 3/4 WCI  25
MULLAN PASS    CLOUDY    32  31  96 S5        30.29R WCI  27
$$



USA.gov is the U.S. government's official web portal to all federal, state and local government web resources and services.